Volver al catálogo

DELTA 1 DEB

ActivoPO
NORAD 42651·DEBRIS·🇺🇸 United States

Lanzado Jun 12, 1975 desde Vandenberg Space Force Base

Loading…

Próximos Pases (próximas 24 horas)

TLE

ObsoletoSource: Space-Track

Época: Aug 28, 2026, 00:41 UTC

1 42651U 75052ML  26240.02910038  .00002871  00000-0  44811-2 0  9992
2 42651  99.2975 162.6125 0155431  19.5098  42.9133 13.46654290581012

Sigue DELTA 1 DEB en tiempo real con AllMySat

Download on the App Store